Location: Caltech
(34.1382°N, 118.1253°W)
Time: 20:26:25
(UTC-07:00)

SO-50 - Visible Passes

Search period start: 19 June 2018 00:00
Search period end: 29 June 2018 00:00
Orbit: 597 x 690 km, 64.6° (Epoch: 19 June)

Date Brightness Start Highest point End Pass type
(mag) Time Alt. Az. Time Alt. Az. Time Alt. Az.
19 Jun ? 22:12:33 10° N 22:16:52 30° NE 22:17:54 28° ENE visible
19 Jun ? 23:53:06 10° NW 23:55:32 22° W 23:55:32 22° W visible
20 Jun ? 22:37:18 10° NNW 22:42:11 75° ENE 22:42:25 73° E visible
21 Jun ? 21:22:56 10° N 21:26:39 21° NE 21:29:19 14° E visible
21 Jun ? 23:02:41 10° NW 23:06:58 41° WSW 23:06:58 41° WSW visible
22 Jun ? 21:47:22 10° NNW 21:52:06 49° ENE 21:53:55 33° ESE visible
22 Jun ? 23:29:11 10° WNW 23:31:34 16° W 23:31:34 16° W visible
23 Jun ? 20:33:34 10° NNE 20:36:25 15° NE 20:39:15 10° E visible
23 Jun ? 22:12:27 10° NW 22:17:18 65° WSW 22:18:35 46° S visible
24 Jun ? 20:57:33 10° N 21:01:59 34° NE 21:05:39 14° ESE visible
24 Jun ? 22:38:20 10° WNW 22:42:15 24° WSW 22:43:18 23° SW visible
25 Jun ? 21:22:22 10° NNW 21:27:16 84° ENE 21:30:26 22° SSE visible
26 Jun ? 21:47:51 10° NW 21:52:20 37° WSW 21:55:16 19° S visible
27 Jun ? 20:32:24 10° NNW 20:37:12 55° ENE 20:41:59 10° SE visible
27 Jun ? 22:14:37 10° WNW 22:17:11 14° WSW 22:19:44 10° SW visible
28 Jun ? 20:57:34 10° NW 21:02:21 57° WSW 21:07:08 10° SSE visible
